Regional Weather Roundup
Issued by NWS

Home | Current Version | Previous Version | Text Only | Print | Product List | Glossary On
Versions: 1 2 3 4 5 6 7 8 9 10 11 12 13 14 15 16 17 18 19 20 21 22 23 24 25 26 27 28 29 30 31 32 33 34 35 36 37 38 39 40 41 42 43 44 45 46 47 48 49 50
000
ASUS43 KMPX 060610
RWRMN
WEATHER ROUNDUP FOR MINNESOTA
NATIONAL WEATHER SERVICE TWIN CITIES/CHANHASSEN MN
1200 AM CST FRI MAR 06 2015


NOTE: "FAIR" INDICATES FEW OR NO CLOUDS BELOW 12,000 FEET WITH NO
SIGNIFICANT WEATHER AND/OR OBSTRUCTIONS TO VISIBILITY. N/A MEANS
CURRENT SKY AND/OR WEATHER CONDITIONS ARE NOT AVAILABLE.

MNZ060>063-068>070-060700-
   Twin Cities Metro

CITY           SKY/WX    TMP DP  RH WIND       PRES   REMARKS
TWIN CITIES    CLEAR      7   0  73 SE9       30.27F WCI  -7
6HR MIN TEMP:   7; 6HR MAX TEMP:  15;

ST PAUL        CLEAR      8   2  76 SE8       30.30F WCI  -4
CRYSTAL        CLEAR     12   2  64 S10       30.24F WCI  -1
BLAINE         CLEAR     10   3  72 S8        30.24F WCI  -1
LAKEVILLE      CLEAR      9   1  72 S12       30.27F WCI  -6
EDEN PRAIRIE   CLEAR     10   2  69 S14       30.25F WCI  -6
6HR MIN TEMP:   8; 6HR MAX TEMP:  13;

SOUTH ST PAUL  CLEAR      8   2  73 S5        30.29F WCI   0
LAKE ELMO      FAIR       9   1  72 S10       30.28F WCI  -6
$$
MNZ001>005-007-008-013>017-022>024-027-028-060700-
   Northwest Minnesota

CITY           SKY/WX    TMP DP  RH WIND       PRES   REMARKS
BEMIDJI        MOCLDY    11   3  70 S12       30.00F WCI  -3
HALLOCK        CLEAR     18  10  73 SW14      29.93F WCI   4
ROSEAU         PTCLDY    18  10  73 SW18      29.90F WCI   2
WARROAD        MOCLDY    16   9  73 SW16      29.90F WCI   0
THIEF RVR FALL CLOUDY    18  10  73 SW18G25   29.96F WCI   2
CROOKSTON      CLOUDY    18  10  73 SW17      30.00F WCI   2
FOSSTON        MOCLDY    16   7  67 S23       29.98F WCI  -2
DETROIT LAKES  CLEAR     12   7  79 S9        30.03F WCI   0
MOORHEAD       CLOUDY    16  10  79 S16       30.04F WCI   0
PARK RAPIDS    CLEAR      7   0  73 S9        30.04F WCI  -7
MAHNOMEN       FAIR      13   6  73 S18       29.99F WCI  -4
$$
MNZ006-009>011-018-025>026-060700-
   North Central Minnesota

CITY           SKY/WX    TMP DP  RH WIND       PRES   REMARKS
BAUDETTE       CLOUDY    14   4  64 SW15      29.92F WCI  -1
FLAG ISLAND    MOCLDY    16   9  73 SW21      29.87F WCI  -2
INTL FALLS     CLOUDY    11   0  61 SW10G21   29.97F WCI  -3
6HR MIN TEMP:  10; 6HR MAX TEMP:  15;

WASKISH        CLOUDY    14   5  67 S12G17    29.96F WCI   0
BIG FORK       CLEAR      9   0  66 S10       30.02F WCI  -6
LONGVILLE      CLEAR      9   1  72 S9        30.07F WCI  -5
GRAND RAPIDS   CLEAR      5   0  78 S12       30.05F WCI -11
CRANE LAKE     PTCLDY     9  -2  61 S8        30.04F WCI  -4
ORR            PTCLDY     7  -4  61 S7        30.00F WCI  -5
COOK           PTCLDY     7  -2  66 S9        30.05F WCI  -7
WALKER         FAIR      10   2  69 S12G18    30.03F WCI  -4
$$
MNZ012-019>021-037-060700-
   Northeast Minnesota

CITY           SKY/WX    TMP DP  RH WIND       PRES   REMARKS
DULUTH         CLEAR      7  -3  64 SW15G22   30.12F WCI -10
6HR MIN TEMP:   5; 6HR MAX TEMP:  12;

ELY            PTCLDY     7  -2  66 SW9G17    30.05F WCI  -7
HIBBING        CLEAR      3  -5  69 S3        30.08F
EVELETH        PTCLDY     5  -2  72 SW8       30.10F WCI  -8
DULUTH HARBOR  PTCLDY     7  -2  66 SW10      30.21F WCI  -8
TWO HARBORS    CLEAR      7  -2  66 SW7       30.13F WCI  -5
SILVER BAY     PTCLDY     7  -2  66 SW3       30.12F
GRAND MARAIS     N/A     11  -2  56 W7        30.16F WCI   0
G MARAIS ARPRT PTCLDY     1 -11  55 S7        30.04F WCI -11
$$
MNZ029>031-032-039>041-046>048-054>057-064-060700-
   West Central Minnesota

CITY           SKY/WX    TMP DP  RH WIND       PRES   REMARKS
FERGUS FALLS   CLEAR     12   3  67 S12       30.12F WCI  -2
WHEATON        CLEAR     10   3  72 SE7       30.11F WCI   0
MORRIS         CLEAR     10   5  79 SE9       30.10F WCI  -2
ALEXANDRIA     CLEAR     14   4  64 S15       30.10F WCI  -1
ELBOW LAKE     FAIR      11   5  75 S14       30.09F WCI  -5
WADENA         CLEAR      9   1  72 S10       30.07F WCI  -6
GLENWOOD       CLEAR     12   7  79 S8        30.13F WCI   1
APPLETON       CLEAR     14   7  73 SE3       30.13F
BENSON         CLEAR     14   7  73 S10       30.13F WCI   1
ORTONVILLE     FAIR      10   3  72 SE10      30.10F WCI  -3
MADISON        CLEAR     12   7  79 S7        30.12F WCI   2
WILLMAR        FAIR      14   5  67 S7        30.17F WCI   4
$$
MNZ033>034-036-042>043-049>051-058-059-060700-
   Central Minnesota

CITY           SKY/WX    TMP DP  RH WIND       PRES   REMARKS
ST CLOUD       PTCLDY     9   1  70 S12       30.18F WCI  -6
6HR MIN TEMP:   3; 6HR MAX TEMP:  12;

SAUK CENTRE    FAIR       8   2  78 SE7       30.14F WCI  -3
PAYNESVILLE    CLEAR     11   4  70 SE16G24   30.16F WCI  -5
AITKIN         CLEAR      9   0  66 S7        30.11F WCI  -3
PINE RIVER     CLEAR      1  -2  85 SE5       30.12F WCI  -8
BRAINERD       CLEAR      9   1  70 S14       30.12F WCI  -7
STAPLES        CLEAR      7   1  78 S12       30.09F WCI  -9
LONG PRAIRIE   FAIR      10   3  72 S12       30.12F WCI  -4
LITTLE FALLS   PTCLDY     7   1  78 SE5       30.16F WCI  -2
LITCHFIELD     CLEAR     12   5  73 CALM      30.19F
BUFFALO        CLEAR     11   3  71 S6        30.22F WCI   1
MAPLE LAKE     CLEAR     10   4  78 S7        30.21F WCI  -1
$$
MNZ037-044-045-052-053-060700-
   East Central Minnesota

CITY           SKY/WX    TMP DP  RH WIND       PRES   REMARKS
PRINCETON      PTCLDY    10   1  67 S9        30.20F WCI  -2
MORA           PTCLDY     7   0  72 S3        30.22F
CAMBRIDGE      PTCLDY     7  -2  66 S7        30.21F WCI  -5
RUSH CITY      MOCLDY     5  -1  77 S8        30.23F WCI  -8
MOOSE LAKE     PTCLDY     5  -2  72 S8        30.16F WCI  -8
HINCKLEY       FAIR       5   0  78 S8        30.21F WCI  -8
CLOQUET        CLEAR      3  -2  78 S7        30.13F WCI  -9
MCGREGOR       CLEAR      5   1  85 S6        30.14F WCI  -6
$$
MNZ071>073-080-081-089-090-097-098-060700-
   Southwest Minnesota

CITY           SKY/WX    TMP DP  RH WIND       PRES   REMARKS
MONTEVIDEO     CLEAR     14   7  73 SW8       30.15F WCI   3
GRANITE FALLS  CLEAR     14   8  76 SE10      30.17F WCI   1
CANBY          CLEAR     22   9  57 SW16G25   30.11F WCI   9
MARSHALL       CLEAR     19   7  58 SW25G32   30.13F WCI   2
REDWOOD FALLS  FAIR      14   6  70 S14       30.19F WCI  -1
OLIVIA         CLEAR     14   7  73 S13       30.17F WCI   0
PIPESTONE      CLEAR     16   7  67 S12       30.14F WCI   3
WINDOM         CLEAR     18   7  62 S14       30.18F WCI   4
WORTHINGTON    CLEAR     16   5  62 S18       30.19F WCI  -1
JACKSON        CLEAR     18   7  62 S16       30.21F WCI   3
TRACY          CLEAR     20   9  60 S22G29    30.14F WCI   4
SLAYTON        CLEAR     17   6  60 S16       30.15F WCI   2
$$
MNZ065>067-074>077-082>085-091>093-060700-
   South Central Minnesota

CITY           SKY/WX    TMP DP  RH WIND       PRES   REMARKS
MANKATO        CLEAR     10   1  67 S10G16    30.25F WCI  -3
NEW ULM        CLEAR     12   5  73 S17       30.21F WCI  -5
ST JAMES       FAIR      16   7  67 S15       30.24F WCI   1
FAIRMONT       CLEAR     12   3  67 S17       30.23F WCI  -5
GLENCOE        CLEAR     13   7  77 S7        30.22F WCI   2
FARIBAULT      CLEAR      9   1  72 S13G20    30.28F WCI  -7
OWATONNA       CLEAR      9   0  66 S20       30.27F WCI -11
WASECA         CLEAR     12   3  67 S15       30.29F WCI  -4
ALBERT LEA     CLEAR      5   0  78 S9        30.28F WCI  -9
$$
MNZ078>079-086>088-094>096-060700-
   Southeast Minnesota

CITY           SKY/WX    TMP DP  RH WIND       PRES   REMARKS
ROCHESTER      PTCLDY     2  -5  72 S14       30.30F WCI -16
6HR MIN TEMP:   1; 6HR MAX TEMP:   5;

RED WING       PTCLDY     7  -2  66 SE5       30.33F WCI  -2
STANTON        CLEAR      9   1  70 S9        30.27F WCI  -5
DODGE CENTER   PTCLDY     5   0  78 S15       30.28F WCI -13
WINONA         CLEAR      7   0  72 SE6       30.40F WCI  -3
AUSTIN         CLEAR      1  -4  78 S8        30.31F WCI -12
PRESTON        MOCLDY     1  -5  76 S15       30.33F WCI -18
$$
ABBREVIATIONS USED IN REMARKS
   TC - TEMPERATURES IN CELSIUS
  WCI - WIND CHILL INDEX
   HX - HEAT INDEX
  VSB - VISIBILITY
$$


USA.gov is the U.S. government's official web portal to all federal, state and local government web resources and services.